Wind_Speed
6 9 6 10 10 14 16 17 19 21 20 20 22 25 24 25 29 28 33 32 33 34 37 35 30 27 23 22 25 30 34 37 37 41 39 34 33 30 27 23 24 27 26 25
9 9 6 10 11 14 16 18 20 20 16 24 27 27 29 25 20 25 24 26 30 31 34 33 32 30 27 24 28 31 34 37 37 39 38 34 32 30 27 24 26 27 27 25
11 9 6 9 12 14 13 16 16 23 26 26 23 19 8 15 16 9 14 17 20 25 30 32 32 33 29 27 28 33 33 38 38 37 34 32 29 28 28 26 26 30 26 25
6 1 10 10 12 8 15 13 21 25 21 14 17 9 16 10 11 9 7 14 19 20 25 32 32 33 32 29 29 31 33 40 39 39 36 36 36 36 33 30 25 28 27 25
8 11 10 9 8 10 14 19 24 26 19 13 13 7 11 21 7 14 18 27 28 25 26 31 35 34 35 31 30 31 33 37 37 39 35 37 36 33 32 27 27 23 26 24
13 6 7 7 11 14 12 19 22 5 5 5 4 8 12 12 20 21 24 34 31 29 29 33 35 34 35 34 31 31 33 37 37 38 38 34 36 32 33 31 28 24 22 24
12 4 1 4 16 4 13 15 5 3 6 12 9 10 10 17 23 26 26 34 34 30 29 31 33 33 33 33 30 31 36 35 36 39 35 34 33 37 39 37 28 27 25 23
9 3 4 9 12 10 13 6 1 6 10 15 17 5 8 19 25 25 32 31 30 21 17 19 28 33 30 32 29 30 33 37 36 33 33 33 32 33 29 33 30 27 25 25
7 3 13 5 12 6 9 6 10 5 8 7 2 4 5 18 27 26 30 30 26 27 11 14 22 27 29 30 27 27 31 37 35 33 34 35 33 34 29 32 34 28 27 29
4 8 8 13 4 6 4 6 4 1 6 7 14 8 5 18 25 26 28 28 30 26 13 13 21 24 28 26 26 26 31 37 38 36 34 34 33 29 32 35 34 35 35 31
9 5 12 16 3 7 4 6 2 3 4 4 8 10 2 17 20 24 25 34 31 28 16 11 16 25 27 24 27 29 31 37 36 37 33 33 33 30 36 37 36 35 35 34
6 6 8 19 3 8 10 12 7 3 4 6 3 5 17 20 26 22 26 34 33 31 11 8 15 19 20 21 24 30 33 35 38 34 33 28 28 33 35 29 29 32 33 32
6 4 9 11 7 7 18 15 13 11 12 6 7 9 20 22 21 29 29 33 33 32 16 3 14 14 19 21 25 30 36 39 37 35 32 36 39 32 26 24 26 27 30 29
8 9 7 7 16 17 14 16 12 13 7 6 5 23 21 24 21 25 30 28 22 24 23 3 6 11 17 19 23 28 30 29 34 31 34 32 29 23 24 26 24 23 23 26
4 11 13 16 17 16 12 10 14 13 5 4 14 20 17 22 19 20 23 26 25 26 23 18 5 8 12 17 20 23 28 28 28 26 31 30 28 23 23 25 23 21 30 37
6 9 14 16 10 8 15 9 15 15 7 6 17 18 15 22 20 23 28 28 27 28 25 17 8 8 10 14 15 22 30 31 37 34 32 32 29 28 27 23 22 24 35 29
7 7 9 10 15 15 2 7 14 14 2 11 15 20 17 19 18 18 29 28 26 29 29 22 12 17 14 15 7 25 37 37 38 34 30 31 30 29 28 30 30 37 39 36
7 10 7 11 13 3 3 7 12 14 3 13 16 20 20 17 22 11 28 30 31 29 26 21 12 6 4 17 29 29 34 37 32 32 33 31 27 27 33 36 41 38 34 33
11 7 6 4 10 15 2 5 14 15 13 12 18 19 23 25 14 2 31 31 29 28 23 16 10 6 9 14 19 29 33 33 32 31 29 28 28 33 34 44 46 44 41 36
4 8 6 10 4 3 3 10 16 11 3 19 18 17 18 22 12 9 30 27 27 27 24 19 13 10 10 15 22 29 30 27 32 31 31 32 34 38 48 49 46 42 38 37
8 6 9 8 7 9 6 10 18 6 12 23 21 19 21 10 6 18 20 20 20 24 24 19 13 10 11 13 20 26 29 31 32 33 35 38 45 51 48 46 44 41 38 37
6 6 6 4 7 6 6 15 12 13 19 20 19 18 18 16 13 14 14 14 17 18 18 17 12 7 6 9 11 20 26 31 35 39 45 50 49 46 43 42 40 39 37 34
4 4 8 7 8 21 26 20 15 14 21 18 16 16 16 17 12 13 13 13 13 14 12 11 10 5 1 5 12 22 29 34 39 47 52 51 48 44 40 37 37 35 33 35
13 12 9 13 4 12 25 28 24 22 19 13 12 13 15 15 11 10 10 11 12 11 10 11 8 4 3 8 11 22 35 42 50 53 51 48 44 43 39 35 33 32 32 31
17 20 14 18 20 18 12 10 10 10 10 11 11 11 13 13 10 8 9 10 10 9 9 8 5 1 9 14 16 24 29 38 46 49 47 47 44 42 35 27 25 24 23 25
23 21 14 12 5 10 15 13 13 12 11 10 11 12 10 10 8 6 6 8 8 8 8 8 7 14 19 20 24 27 34 37 37 41 42 41 40 30 36 36 33 29 29 27
Wind_Direction
329 284 305 339 311 297 296 295 296 295 301 296 283 290 288 282 276 272 269 266 260 255 254 256 247 239 239 232 218 211 208 207 207 204 197 197 199 196 196 194 193 202 204 205
263 275 349 312 304 295 295 296 292 303 309 311 299 298 291 279 268 267 270 271 265 255 248 251 244 236 228 227 219 211 206 204 209 208 196 198 198 197 195 191 198 203 204 205
297 302 341 309 307 306 308 301 310 307 314 301 295 306 300 315 286 269 281 278 274 262 246 247 245 238 230 223 220 213 207 202 205 198 194 193 194 195 193 192 196 201 202 204
286 338 303 307 304 320 308 335 313 309 319 309 336 294 302 306 283 272 300 312 300 274 252 249 243 240 229 224 216 212 207 205 207 200 194 193 191 192 196 191 191 197 201 199
339 314 319 300 333 321 292 319 303 296 294 306 284 258 270 309 308 329 317 320 308 289 268 250 243 234 231 218 215 213 208 204 203 200 192 196 193 196 189 184 193 189 196 195
307 287 281 309 311 286 307 306 317 300 306 263 337 315 302 353 326 316 325 317 307 296 278 254 242 229 224 216 210 210 210 206 201 201 194 193 193 189 184 180 189 184 185 192
317 169 183 288 326 315 320 352 322 324 304 309 5 315 287 332 330 325 306 313 306 296 284 248 230 221 215 212 208 204 204 205 194 198 192 190 192 189 188 191 186 183 181 184
344 156 13 349 341 312 313 29 2 305 329 308 310 304 307 325 308 322 328 315 309 306 279 237 217 214 209 207 203 204 199 199 199 192 191 187 187 187 183 189 183 180 182 182
320 302 341 325 321 295 359 327 334 283 264 267 263 266 298 325 332 335 331 332 326 319 285 243 220 207 205 199 200 200 195 195 197 193 186 188 188 186 185 180 182 175 178 190
334 298 300 326 269 192 308 357 321 281 305 299 331 338 293 310 323 327 335 337 329 316 289 237 228 208 195 196 194 195 192 190 191 185 190 181 181 182 188 184 180 184 189 192
296 239 304 297 331 351 2 333 294 240 247 292 318 335 342 323 326 329 334 337 329 308 298 234 226 206 189 190 191 190 193 189 189 184 184 182 181 183 183 181 184 191 193 194
328 297 289 298 278 219 334 343 345 285 314 274 256 290 350 353 327 330 339 334 336 334 307 214 189 186 187 185 188 187 188 186 185 181 180 165 172 185 178 185 192 196 189 187
336 253 309 327 161 222 340 315 322 297 283 273 310 304 332 341 333 337 346 337 345 346 354 300 186 187 195 182 184 176 183 175 172 176 165 177 195 192 186 198 199 194 186 182
217 260 282 283 297 302 297 323 313 309 308 325 288 315 345 332 343 336 336 337 350 358 1 63 176 177 180 168 177 173 165 173 174 166 178 184 187 193 195 203 200 190 185 185
245 287 304 303 294 283 295 301 331 336 347 297 316 325 353 333 327 345 335 345 2 12 10 17 131 176 170 168 166 167 183 180 175 183 190 182 179 184 186 184 183 196 191 182
306 284 303 293 284 280 283 276 324 341 351 315 332 337 342 327 330 2 353 353 2 8 15 25 89 136 138 152 158 174 165 170 182 183 179 178 179 191 196 204 200 193 181 157
284 298 310 300 327 304 341 290 340 335 359 336 351 337 354 339 346 15 348 352 2 8 17 21 50 140 148 148 198 167 169 176 195 183 177 177 183 181 180 178 175 167 158 153
269 300 282 303 310 279 38 330 337 328 330 347 353 346 358 342 328 13 359 355 358 8 25 26 30 105 100 172 181 169 167 165 168 167 167 174 176 179 176 171 162 152 148 143
229 285 303 299 317 286 38 353 343 338 323 345 357 346 356 345 327 40 360 3 4 11 29 56 76 129 206 191 175 165 160 165 172 173 175 173 176 173 163 153 152 151 147 142
217 243 277 313 291 286 48 352 334 319 224 5 357 351 356 347 1 348 350 358 8 15 20 34 77 112 149 160 166 168 159 167 165 168 166 166 167 164 157 153 148 145 146 141
306 278 262 269 281 285 52 347 325 270 354 336 350 354 349 353 335 321 341 357 7 11 18 15 28 81 121 153 164 159 158 159 160 162 163 162 158 154 151 148 146 144 141 138
290 307 288 283 276 284 35 329 337 326 322 322 339 351 345 346 344 342 349 358 1 5 14 24 18 19 97 153 180 158 151 154 156 158 153 149 150 149 147 145 142 140 141 139
269 236 312 296 295 314 307 306 304 300 313 318 335 344 344 341 350 344 347 1 20 6 8 12 14 27 179 156 175 170 159 158 156 155 151 149 146 143 144 143 142 141 143 143
277 261 257 301 261 304 306 300 291 286 293 320 330 335 341 344 350 347 352 5 14 30 19 0 5 18 157 213 175 160 156 155 152 149 147 144 147 143 139 138 135 134 138 135
278 291 277 283 285 287 264 340 335 313 311 317 326 333 336 341 351 355 355 11 15 32 44 23 6 174 145 171 165 158 154 152 143 140 140 138 135 133 131 120 119 121 123 128
260 260 253 263 332 290 292 306 309 307 305 323 328 329 332 338 347 3 9 20 27 40 63 71 125 146 144 153 151 153 155 152 150 142 137 130 126 130 134 134 127 125 127 130
Height
1487 1487 1472 1476 1477 1475 1471 1466 1457 1447 1439 1438 1431 1423 1423 1420 1415 1412 1410 1410 1410 1412 1413 1416 1419 1421 1422 1424 1425 1427 1431 1435 1441 1446 1452 1460 1465 1472 1477 1480 1484 1488 1493 1498
1480 1473 1476 1478 1476 1472 1467 1462 1450 1441 1433 1432 1420 1417 1409 1405 1406 1404 1403 1402 1400 1402 1404 1406 1409 1413 1413 1417 1419 1420 1424 1427 1433 1439 1447 1455 1462 1468 1473 1477 1481 1485 1490 1494
1482 1474 1479 1478 1473 1468 1460 1455 1450 1446 1434 1425 1410 1409 1397 1398 1397 1399 1398 1398 1397 1395 1396 1398 1402 1404 1407 1408 1412 1413 1417 1421 1427 1435 1443 1450 1458 1466 1469 1473 1476 1481 1486 1491
1476 1477 1478 1475 1472 1469 1462 1450 1451 1445 1440 1432 1426 1433 1410 1393 1390 1389 1390 1391 1390 1389 1390 1391 1393 1397 1398 1402 1406 1409 1411 1415 1421 1429 1435 1441 1448 1454 1461 1466 1473 1478 1483 1487
1473 1476 1476 1475 1469 1470 1463 1457 1451 1439 1433 1434 1422 1424 1398 1381 1382 1385 1387 1387 1386 1382 1382 1381 1383 1387 1391 1394 1399 1404 1407 1409 1415 1422 1430 1436 1443 1451 1455 1462 1469 1475 1479 1484
1472 1476 1478 1472 1472 1465 1462 1451 1435 1433 1434 1444 1410 1418 1404 1392 1397 1389 1387 1386 1380 1375 1372 1371 1373 1378 1382 1387 1391 1398 1403 1405 1410 1417 1424 1430 1438 1444 1449 1454 1463 1471 1476 1481
1468 1466 1473 1476 1466 1456 1456 1453 1462 1443 1433 1411 1415 1424 1404 1402 1400 1398 1391 1379 1371 1363 1360 1359 1362 1368 1374 1380 1385 1390 1397 1402 1407 1413 1419 1426 1434 1440 1443 1448 1461 1466 1472 1478
1479 1469 1470 1472 1469 1467 1459 1468 1480 1475 1447 1425 1417 1426 1413 1412 1408 1397 1389 1379 1368 1356 1353 1352 1356 1362 1368 1375 1380 1384 1392 1399 1404 1410 1416 1422 1431 1438 1442 1447 1456 1462 1469 1474
1488 1473 1471 1470 1467 1465 1459 1465 1467 1477 1465 1453 1411 1414 1420 1413 1405 1395 1388 1379 1368 1355 1354 1353 1353 1357 1365 1371 1378 1382 1388 1395 1402 1408 1414 1419 1428 1434 1436 1447 1449 1458 1466 1469
1496 1496 1469 1465 1463 1463 1463 1465 1472 1476 1461 1442 1403 1409 1430 1421 1410 1395 1382 1376 1370 1359 1347 1350 1352 1356 1361 1368 1375 1380 1385 1391 1396 1404 1415 1417 1424 1430 1437 1441 1448 1451 1458 1465
1492 1498 1478 1460 1454 1459 1457 1464 1465 1477 1470 1458 1436 1413 1422 1419 1412 1398 1385 1377 1369 1354 1343 1344 1350 1354 1359 1364 1372 1377 1382 1389 1395 1402 1409 1414 1419 1431 1434 1438 1441 1449 1453 1462
1490 1488 1485 1462 1451 1457 1451 1455 1457 1473 1462 1456 1453 1427 1410 1418 1411 1399 1391 1379 1367 1350 1343 1342 1348 1350 1358 1364 1372 1374 1381 1387 1394 1401 1409 1408 1425 1429 1429 1436 1440 1451 1452 1459
1492 1487 1478 1458 1452 1453 1455 1453 1453 1452 1449 1453 1454 1428 1412 1415 1407 1396 1392 1382 1371 1356 1346 1344 1346 1352 1359 1364 1369 1373 1377 1384 1393 1401 1399 1406 1422 1429 1426 1433 1443 1448 1456 1461
1496 1484 1482 1489 1471 1463 1463 1449 1449 1446 1449 1455 1447 1433 1415 1415 1411 1400 1393 1386 1379 1368 1357 1349 1351 1355 1361 1364 1368 1374 1378 1384 1392 1398 1401 1409 1416 1418 1425 1434 1443 1449 1455 1451
1489 1481 1473 1466 1464 1455 1451 1454 1444 1445 1446 1456 1449 1429 1427 1420 1412 1407 1398 1388 1380 1374 1365 1359 1359 1361 1364 1368 1370 1373 1377 1384 1390 1392 1398 1404 1410 1418 1427 1435 1441 1445 1452 1455
1487 1482 1473 1467 1448 1448 1446 1449 1441 1439 1446 1449 1435 1429 1429 1421 1413 1407 1399 1391 1385 1380 1372 1367 1362 1364 1367 1373 1375 1377 1378 1382 1386 1390 1395 1404 1414 1425 1430 1432 1437 1445 1455 1463
1487 1478 1477 1460 1447 1439 1453 1449 1442 1440 1444 1444 1441 1431 1427 1420 1414 1410 1402 1395 1390 1382 1376 1370 1369 1368 1370 1371 1370 1372 1369 1380 1391 1396 1400 1409 1415 1419 1424 1430 1438 1447 1457 1464
1482 1477 1473 1462 1455 1448 1443 1442 1440 1439 1438 1440 1436 1431 1429 1426 1419 1414 1409 1398 1392 1390 1386 1372 1367 1366 1368 1375 1378 1378 1383 1387 1394 1397 1402 1409 1413 1419 1427 1434 1442 1452 1461 1465
1483 1479 1472 1470 1460 1443 1441 1442 1442 1439 1439 1439 1434 1432 1431 1426 1417 1415 1410 1403 1396 1392 1390 1387 1383 1377 1380 1380 1379 1383 1389 1390 1397 1401 1405 1410 1416 1422 1430 1439 1445 1453 1458 1468
1478 1480 1476 1469 1474 1457 1441 1443 1443 1436 1445 1435 1435 1434 1430 1428 1420 1419 1412 1406 1400 1395 1391 1391 1390 1389 1387 1388 1387 1388 1387 1395 1395 1403 1409 1413 1418 1425 1435 1442 1448 1455 1462 1469
1470 1465 1464 1458 1459 1446 1443 1444 1441 1440 1438 1437 1436 1435 1432 1432 1432 1426 1418 1410 1403 1398 1393 1392 1393 1392 1392 1393 1392 1392 1391 1394 1396 1402 1409 1415 1423 1430 1439 1446 1453 1457 1464 1472
1475 1470 1461 1455 1456 1462 1448 1446 1449 1443 1442 1439 1436 1436 1435 1432 1430 1427 1423 1417 1408 1402 1399 1397 1397 1395 1395 1395 1395 1394 1394 1397 1401 1407 1413 1421 1431 1438 1445 1451 1457 1463 1469 1474
1474 1469 1464 1461 1446 1443 1446 1447 1445 1444 1441 1437 1436 1437 1435 1432 1430 1427 1423 1420 1415 1410 1406 1404 1403 1401 1400 1400 1401 1400 1402 1404 1406 1412 1419 1428 1436 1444 1451 1455 1462 1467 1472 1479
1466 1466 1463 1462 1447 1446 1445 1444 1441 1441 1439 1438 1438 1437 1434 1432 1430 1427 1424 1421 1417 1412 1409 1407 1405 1403 1403 1403 1406 1407 1407 1409 1412 1417 1425 1434 1441 1446 1454 1462 1468 1472 1478 1482
1470 1465 1460 1453 1449 1445 1441 1441 1440 1438 1437 1437 1436 1436 1434 1431 1429 1427 1424 1421 1419 1415 1411 1409 1408 1407 1406 1406 1406 1412 1418 1418 1418 1421 1429 1437 1445 1452 1463 1472 1478 1482 1485 1486
1463 1454 1453 1443 1442 1445 1442 1441 1440 1438 1437 1436 1436 1435 1433 1432 1430 1427 1426 1423 1420 1417 1414 1411 1412 1411 1410 1410 1409 1416 1421 1427 1428 1431 1439 1444 1453 1463 1469 1473 1477 1484 1487 1493